TimeCDT,TemperatureF,Dew PointF,Humidity,Sea Level PressureIn,VisibilityMPH,Wind Direction,Wind SpeedMPH,Gust SpeedMPH,PrecipitationIn,Events,Conditions,WindDirDegrees,DateUTC
12:55 AM,41.5,38.8,90,30.15,10.0,Calm,Calm,-,N/A,,Clear,0,2012-10-09 05:55:00
1:55 AM,41.2,38.5,90,30.15,10.0,Calm,Calm,-,N/A,,Clear,0,2012-10-09 06:55:00
2:55 AM,39.7,38.8,97,30.15,10.0,Calm,Calm,-,N/A,,Clear,0,2012-10-09 07:55:00
3:55 AM,39.4,39.2,99,30.15,10.0,SE,3.5,-,N/A,,Clear,130,2012-10-09 08:55:00
4:55 AM,38.8,38.8,100,30.15,10.0,Calm,Calm,-,N/A,,Clear,0,2012-10-09 09:55:00
5:55 AM,38.8,38.7,99,30.16,10.0,Calm,Calm,-,N/A,,Clear,0,2012-10-09 10:55:00
6:55 AM,39.4,39.0,99,30.17,10.0,Calm,Calm,-,N/A,,Clear,0,2012-10-09 11:55:00
7:55 AM,41.0,41.0,100,30.17,10.0,ESE,3.5,-,N/A,,Clear,120,2012-10-09 12:55:00
8:55 AM,47.7,43.7,86,30.18,10.0,Calm,Calm,-,N/A,,Clear,0,2012-10-09 13:55:00
9:55 AM,53.4,44.2,71,30.17,10.0,Variable,3.5,-,N/A,,Clear,0,2012-10-09 14:55:00
10:55 AM,58.3,43.2,57,30.17,10.0,Calm,Calm,-,N/A,,Clear,0,2012-10-09 15:55:00
11:55 AM,61.2,39.9,46,30.14,10.0,Variable,4.6,-,N/A,,Clear,0,2012-10-09 16:55:00
12:55 PM,63.1,41.7,46,30.10,10.0,SSW,9.2,-,N/A,,Clear,200,2012-10-09 17:55:00
1:55 PM,63.9,41.9,45,30.06,10.0,Variable,5.8,-,N/A,,Clear,0,2012-10-09 18:55:00
2:55 PM,65.1,43.0,45,30.05,10.0,South,8.1,-,N/A,,Clear,180,2012-10-09 19:55:00
3:55 PM,65.3,42.3,43,30.04,10.0,SW,10.4,-,N/A,,Clear,230,2012-10-09 20:55:00
4:55 PM,64.4,41.9,44,30.02,10.0,South,9.2,-,N/A,,Clear,180,2012-10-09 21:55:00
5:55 PM,61.0,43.3,52,30.02,10.0,SW,6.9,-,N/A,,Clear,220,2012-10-09 22:55:00
6:55 PM,57.2,44.1,62,30.01,10.0,SSW,3.5,-,N/A,,Clear,210,2012-10-09 23:55:00
7:55 PM,56.5,44.2,64,30.02,10.0,SSW,4.6,-,N/A,,Clear,210,2012-10-10 00:55:00
8:55 PM,54.3,44.6,70,30.02,10.0,SW,3.5,-,N/A,,Clear,230,2012-10-10 01:55:00
9:55 PM,51.8,45.1,78,30.03,10.0,WSW,4.6,-,N/A,,Clear,240,2012-10-10 02:55:00
10:55 PM,51.1,45.5,81,30.03,10.0,SW,3.5,-,N/A,,Clear,220,2012-10-10 03:55:00
11:55 PM,50.4,46.2,86,30.03,10.0,Calm,Calm,-,N/A,,Mostly Cloudy,0,2012-10-10 04:55:00